This is the latest recevied weather packets stored in our database for station/object AA6HF. If no packets are shown the sender has not sent any weather packets the latest 10 day(s).
| Time | Temp. | Humidity | Pressure | Rain* | Wind** | Luminosity | Snow |
|---|---|---|---|---|---|---|---|
| 1788043115 | 44.44° C | 14% | 1003.7 hPa | 0 mm | - | - | - |
| 1788042815 | 45° C | 14% | 1003.6 hPa | 0 mm | - | - | - |
| 1788042515 | 45° C | 14% | 1003.8 hPa | 0 mm | - | - | - |
| 1788042215 | 45.56° C | 13% | 1003.9 hPa | 0 mm | - | - | - |
| 1788041915 | 45.56° C | 13% | 1003.9 hPa | 0 mm | - | - | - |
| 1788041615 | 45.56° C | 13% | 1003.9 hPa | 0 mm | - | - | - |
| 1788041315 | 45.56° C | 13% | 1004 hPa | 0 mm | - | - | - |
| 1788041015 | 45.56° C | 13% | 1004.1 hPa | 0 mm | - | - | - |
| 1788040715 | 46.11° C | 14% | 1004.1 hPa | 0 mm | - | - | - |
| 1788040415 | 46.11° C | 14% | 1004.4 hPa | 0 mm | - | - | - |
| 1788040115 | 45.56° C | 14% | 1004.3 hPa | 0 mm | - | - | - |
| 1788039815 | 45.56° C | 15% | 1004.5 hPa | 0 mm | - | - | - |
| 1788039515 | 45.56° C | 15% | 1004.5 hPa | 0 mm | - | - | - |
| 1788039215 | 45.56° C | 15% | 1004.6 hPa | 0 mm | - | - | - |
| 1788038915 | 45.56° C | 15% | 1004.6 hPa | 0 mm | - | - | - |
| 1788038615 | 45° C | 15% | 1004.7 hPa | 0 mm | - | - | - |
| 1788038315 | 45.56° C | 15% | 1004.8 hPa | 0 mm | - | - | - |
| 1788038015 | 44.44° C | 16% | 1005 hPa | 0 mm | - | - | - |
| 1788037715 | 44.44° C | 16% | 1004.9 hPa | 0 mm | - | - | - |
| 1788037415 | 45° C | 15% | 1005 hPa | 0 mm | - | - | - |
| 1788037115 | 45.56° C | 15% | 1005.1 hPa | 0 mm | - | - | - |
| 1788036815 | 45° C | 15% | 1005.1 hPa | 0 mm | - | - | - |
| 1788036515 | 45° C | 15% | 1005.2 hPa | 0 mm | - | - | - |
| 1788036215 | 45° C | 15% | 1005.2 hPa | 0 mm | - | - | - |
| 1788035915 | 45° C | 15% | 1005.3 hPa | 0 mm | - | - | - |
* Rain latest hour (hover to see other rain measurements)
** Current wind speed in m/s (hover to see current wind gust speed)